{"data":{"norad_id":65833,"epoch":"2026-09-20T23:24:04.497120Z","epoch_age_seconds":64950,"freshness":"FRESH","line1":"1 65833U 25221L   26263.97505205  .00010358  00000+0  31723-3 0  9994","line2":"2 65833  53.1591 257.6378 0001305  52.8688 307.2433 15.34402081 56039","mean_motion":15.34402081,"eccentricity":0.0001305,"inclination_deg":53.1591,"raan_deg":257.6378,"arg_perigee_deg":52.8688,"mean_anomaly_deg":307.2433,"bstar":0.00031723,"rev_number":5603,"period_min":93.84763080232,"perigee_km":461.80432619936,"apogee_km":463.58978388773,"semimajor_km":6840.8340550435,"source":"CELESTRAK","updated_at":"2026-09-21T09:00:35.721027Z"}}